Погода в Национальном парке Зайон

США     37°11′22″N   113°00′22″W
темп.,
°C
ветер,
м/с
пор.,
м/с
влажн.,
%
обл.,
%
осадки,
мм/ч
давл.,
гПа
погр.,
м
15 мая, сб
сб1500:00+16юз112123 0.0 100811
03:00+15ююв222552 0.0 100811
06:00+13вюв222596 0.0 100911
09:00+19ююв231482 0.0 1009617
12:00+23ююз69146 0.0 10073066
15:00+25ююз79104 0.0 10043806
18:00+24юз1010100 0.0 10023780
21:00+18юз59170 0.0 1005159
16 мая, вс
вс1600:00+14юв12260 0.0 100614
03:00+12всв11320 0.0 100611
06:00+12в333060 0.0 100718
09:00+16ююв77210 0.0 10081838
12:00+19ю56180 0.0 10082668
15:00+21юз77155 0.0 10063546
18:00+20з781418 0.0 10053272
21:00+15з5919100 0.0 1007215
17 мая, пн
пн1700:00+13з222553 0.0 100910
03:00+12сз1229100 0.0 100814
06:00+10сз123710 0.0 100910
09:00+15з233268 0.0 1010734
12:00+19зюз672445 0.1 10082113
15:00+19ююз672697 0.1 10071960
18:00+10в3377100 5.0 1013212
21:00+13ссв115948 0.3 101156
18 мая, вт
вт1800:00+12с335524 0.3 101119
03:00+11св11545 0.0 101011
06:00+10ссв22533 0.0 101113
09:00+16з123667 0.0 1010461
12:00+21зюз4526100 0.0 10081861
15:00+24з772115 0.0 10052572
18:00+23з862454 0.0 10052693
21:00+18сз4437100 0.0 100782
19 мая, ср
ср1900:00+16сз124382 0.0 100812
03:00+14сз114623 0.0 100812
06:00+13юв00525 0.0 100810
09:00+18ююв11380 0.0 1008441
12:00+22зюз56285 0.0 10062063
15:00+24зюз9102165 0.0 10033310
18:00+23зюз13131874 0.0 10013297
21:00+19зюз81423100 0.0 1002440